Regional Weather Roundup
Issued by NWS Sioux Falls, SD

Home | Current Version | Previous Version | Text Only | Print | Product List | Glossary Off
Versions: 1 2 3 4 5 6 7 8 9 10 11 12 13 14 15 16 17 18 19 20 21 22 23 24 25 26 27 28 29 30 31 32 33 34 35 36 37 38 39 40 41 42 43 44 45 46 47 48 49 50

364
ASUS43 KFSD 202110
RWRFSD

WEATHER ROUNDUP FOR SE SOUTH DAKOTA/SW MINNESOTA/NW IOWA
NATIONAL WEATHER SERVICE SIOUX FALLS SD
400 PM CDT FRI APR 20 2018

NOTE: "FAIR" INDICATES FEW OR NO CLOUDS BELOW 12,000 FEET WITH NO
SIGNIFICANT WEATHER AND OR OBSTRUCTIONS TO VISIBILITY.


SDZ038>040-050-052>070-202200-
SOUTHEAST SOUTH DAKOTA

CITY           SKY/WX    TMP DP  RH WIND       PRES   REMARKS
BROOKINGS      CLOUDY    48  37  65 SE9       30.35F
CHAMBERLAIN    CLOUDY    49  40  70 SE12      30.30R
HURON          CLOUDY    48  36  63 SE8       30.33F
MADISON        FAIR      46  41  81 SE9       30.34F
MITCHELL       CLOUDY    45  37  73 E12       30.32F
SIOUX FALLS    CLOUDY    49  35  58 SE8       30.34F
WINNER         CLOUDY    48  34  58 SE9       30.29R
YANKTON        CLOUDY    56  33  42 SE13G18   30.30F
$$

MNZ071-072-080-081-089-090-097-098-202200-
SOUTHWEST MINNESOTA

CITY           SKY/WX    TMP DP  RH WIND       PRES   REMARKS
FAIRMONT       CLOUDY    39  28  64 SE7       30.42F
JACKSON        CLOUDY    37  30  75 E6        30.41F
LUVERNE        CLOUDY    50  34  53 SE9       30.36F
MARSHALL       CLOUDY    42  32  67 SE9       30.40F
MONTEVIDEO     MOSUNNY   48  30  49 SW8       30.41F
PIPESTONE      CLOUDY   N/A N/A N/A SE8       30.36F
REDWOOD FALLS  SUNNY     42  32  67 SE9       30.42F
TRACY          MOSUNNY   42  33  70 SE8       30.39F
WINDOM         CLOUDY    39  21  48 E7        30.41F
WORTHINGTON    CLOUDY    41  33  73 E9        30.38F
$$

IAZ001>003-012>014-020>022-031-032-NEZ013-014-SDZ071-202200-
NORTHWEST IOWA

CITY           SKY/WX    TMP DP  RH WIND       PRES   REMARKS
CHEROKEE       CLOUDY    47  39  73 E13       30.36F
DENISON        CLOUDY    59  28  31 S12       30.33F
ESTHERVILLE    CLOUDY    36  30  79 E8        30.40F
LE MARS        CLOUDY    55  34  44 SE13      30.33F
ORANGE CITY    CLOUDY    48  39  71 E8        30.35F
SHELDON        CLOUDY    46  39  76 E12       30.35F
SIOUX CITY     CLOUDY    59  31  34 SE10G24   30.30F
SPENCER        CLOUDY    41  31  67 E12       30.39F
STORM LAKE     MOSUNNY   45  39  81 NE10      30.35F
$$

ABBREVIATIONS USED IN REMARKS
   TC - TEMPERATURE IN CELSIUS
  WCI - WIND CHILL INDEX
   HX - HEAT INDEX
  VSB - VISIBILITY





USA.gov is the U.S. government's official web portal to all federal, state and local government web resources and services.